Location: ????????
(55.0559°N, 39.1270°E)
Time: 18:29:26
(UTC+00:00)

SJ 16-02 - Pass Details

Date: 15 November 2025
Orbit: 585 x 594 km, 75.0° (Epoch: 14 December)

Event Time Altitude Azimuth Distance (km) Brightness Sun altitude
Exits shadow 02:16:02 41° 194° (SSW) 863 1.9 -22.5°
Drops below altitude 10° 02:19:01 10° 171° (S) 1,913 4.0 -22.1°
Sets 02:21:14 0° 168° (SSE) 2,807 4.9 -21.7°
